IBE05TR LEMD-LPPT

Flight info

Callsign IBE05TR
Flight time 1h 1m
Altitude 33000
Route CCS DCT ELVAR DCT UPULO
Aircraft A320/M-SDE3FGHIRWY/LB1

Departure

Time 2026-05-07 16:23
Airport Adolfo Suárez Madrid–Barajas Airport (LEMD)

Arrival

Time 2026-05-07 17:25
Airport Lisbon Humberto Delgado Airport (LPPT)
Time Latitude Longitude Altitude Speed Heading
2026-05-07 16:05 40.48761 -3.58954 2022 ft 0 kts 271°
2026-05-07 16:14 40.48762 -3.58939 2047 ft 4 kts 266°
2026-05-07 16:14 40.48763 -3.58906 2029 ft 4 kts 246°
2026-05-07 16:14 40.48780 -3.58883 2029 ft 4 kts 197°
2026-05-07 16:15 40.48806 -3.58878 2024 ft 4 kts 180°
2026-05-07 16:15 40.48813 -3.58878 2022 ft 0 kts 180°
2026-05-07 16:19 40.48789 -3.58875 2027 ft 6 kts 171°
2026-05-07 16:19 40.48758 -3.58818 2024 ft 16 kts 96°
2026-05-07 16:19 40.48759 -3.58674 2022 ft 15 kts 89°
2026-05-07 16:19 40.48761 -3.58531 2018 ft 18 kts 89°
2026-05-07 16:20 40.48761 -3.58349 2013 ft 22 kts 89°
2026-05-07 16:20 40.48763 -3.58139 2006 ft 19 kts 90°
2026-05-07 16:20 40.48761 -3.57948 1999 ft 23 kts 90°
2026-05-07 16:20 40.48763 -3.57716 1992 ft 26 kts 88°
2026-05-07 16:21 40.48708 -3.57575 1991 ft 17 kts 170°
2026-05-07 16:21 40.48619 -3.57560 1993 ft 0 kts 172°
2026-05-07 16:21 40.48618 -3.57560 1993 ft 2 kts 172°
2026-05-07 16:22 40.48546 -3.57548 1994 ft 19 kts 173°
2026-05-07 16:22 40.48411 -3.57511 1997 ft 19 kts 154°
2026-05-07 16:22 40.48315 -3.57423 2001 ft 15 kts 142°
2026-05-07 16:22 40.48026 -3.57129 2003 ft 87 kts 142°
2026-05-07 16:23 40.47377 -3.56473 1990 ft 145 kts 142°
2026-05-07 16:23 40.46479 -3.55528 2161 ft 173 kts 138°
2026-05-07 16:23 40.45553 -3.54523 2793 ft 174 kts 139°
2026-05-07 16:23 40.44599 -3.53539 3457 ft 175 kts 143°
2026-05-07 16:24 40.43602 -3.52591 3986 ft 181 kts 146°
2026-05-07 16:24 40.42485 -3.51652 4309 ft 201 kts 147°
2026-05-07 16:24 40.41257 -3.50544 4733 ft 224 kts 144°
2026-05-07 16:24 40.39992 -3.49261 5366 ft 234 kts 142°
2026-05-07 16:25 40.38736 -3.47912 6260 ft 232 kts 141°
2026-05-07 16:25 40.37511 -3.46536 7079 ft 232 kts 140°
2026-05-07 16:25 40.36275 -3.45116 7719 ft 241 kts 140°
2026-05-07 16:25 40.34968 -3.43645 8293 ft 254 kts 141°
2026-05-07 16:26 40.33566 -3.42176 8944 ft 263 kts 144°
2026-05-07 16:26 40.32045 -3.40752 9614 ft 271 kts 147°
2026-05-07 16:26 40.30491 -3.39405 10565 ft 265 kts 149°
2026-05-07 16:26 40.29437 -3.38662 11252 ft 258 kts 159°
2026-05-07 16:27 40.27081 -3.38239 12084 ft 266 kts 190°
2026-05-07 16:27 40.25296 -3.39043 12522 ft 278 kts 207°
2026-05-07 16:27 40.23533 -3.40154 13201 ft 283 kts 205°
2026-05-07 16:27 40.21755 -3.41307 13908 ft 287 kts 212°
2026-05-07 16:28 40.20223 -3.42983 14552 ft 290 kts 229°
2026-05-07 16:28 40.19084 -3.45231 14827 ft 309 kts 246°
2026-05-07 16:28 40.18428 -3.48012 14942 ft 331 kts 255°
2026-05-07 16:28 40.17828 -3.51003 15224 ft 346 kts 255°
2026-05-07 16:29 40.17203 -3.54072 15789 ft 352 kts 254°
2026-05-07 16:29 40.16561 -3.57171 16431 ft 355 kts 254°
2026-05-07 16:29 40.15909 -3.60292 17076 ft 357 kts 254°
2026-05-07 16:29 40.15250 -3.63427 17725 ft 360 kts 254°
2026-05-07 16:30 40.14581 -3.66591 18351 ft 362 kts 254°
2026-05-07 16:30 40.13905 -3.69775 18913 ft 365 kts 254°
2026-05-07 16:30 40.13226 -3.72981 19476 ft 367 kts 254°
2026-05-07 16:30 40.12553 -3.76164 20043 ft 370 kts 254°
2026-05-07 16:31 40.11868 -3.79412 20603 ft 372 kts 254°
2026-05-07 16:31 40.11177 -3.82681 21167 ft 375 kts 254°
2026-05-07 16:31 40.10481 -3.85972 21720 ft 377 kts 254°
2026-05-07 16:31 40.09777 -3.89286 22275 ft 380 kts 254°
2026-05-07 16:32 40.09069 -3.92623 22803 ft 383 kts 254°
2026-05-07 16:32 40.08355 -3.95981 23338 ft 385 kts 254°
2026-05-07 16:32 40.07634 -3.99360 23785 ft 387 kts 255°
2026-05-07 16:32 40.06908 -4.02752 24227 ft 389 kts 255°
2026-05-07 16:33 40.06176 -4.06160 24663 ft 391 kts 255°
2026-05-07 16:33 40.05443 -4.09575 25090 ft 392 kts 255°
2026-05-07 16:33 40.04704 -4.13005 25506 ft 393 kts 255°
2026-05-07 16:33 40.03959 -4.16448 25922 ft 394 kts 255°
2026-05-07 16:34 40.03212 -4.19897 26322 ft 396 kts 255°
2026-05-07 16:34 40.02465 -4.23358 26728 ft 397 kts 256°
2026-05-07 16:34 40.01716 -4.26829 27122 ft 398 kts 256°
2026-05-07 16:34 40.00963 -4.30312 27505 ft 399 kts 256°
2026-05-07 16:35 40.00204 -4.33803 27894 ft 401 kts 256°
2026-05-07 16:35 39.99443 -4.37305 28270 ft 402 kts 256°
2026-05-07 16:35 39.98677 -4.40817 28631 ft 403 kts 256°
2026-05-07 16:35 39.97906 -4.44344 28988 ft 405 kts 256°
2026-05-07 16:36 39.97137 -4.47878 29335 ft 406 kts 256°
2026-05-07 16:36 39.96364 -4.51424 29666 ft 407 kts 256°
2026-05-07 16:36 39.95585 -4.54980 29976 ft 409 kts 256°
2026-05-07 16:36 39.94800 -4.58547 30235 ft 410 kts 256°
2026-05-07 16:37 39.94012 -4.62113 30495 ft 411 kts 256°
2026-05-07 16:37 39.93220 -4.65696 30744 ft 412 kts 256°
2026-05-07 16:37 39.92426 -4.69289 30983 ft 413 kts 256°
2026-05-07 16:37 39.91633 -4.72889 31247 ft 413 kts 256°
2026-05-07 16:38 39.90843 -4.76477 31590 ft 411 kts 256°
2026-05-07 16:38 39.90052 -4.80050 31928 ft 410 kts 256°
2026-05-07 16:38 39.89262 -4.83612 32267 ft 409 kts 256°
2026-05-07 16:38 39.88482 -4.87113 32591 ft 407 kts 256°
2026-05-07 16:39 39.87690 -4.90652 32835 ft 407 kts 256°
2026-05-07 16:39 39.86141 -4.97581 32872 ft 393 kts 256°
2026-05-07 16:40 39.84609 -5.04404 32868 ft 391 kts 256°
2026-05-07 16:40 39.83090 -5.11201 32866 ft 391 kts 256°
2026-05-07 16:41 39.81561 -5.17999 32864 ft 391 kts 255°
2026-05-07 16:41 39.80023 -5.24794 32860 ft 392 kts 255°
2026-05-07 16:42 39.78490 -5.31541 32855 ft 392 kts 255°
2026-05-07 16:42 39.76946 -5.38329 32849 ft 392 kts 255°
2026-05-07 16:43 39.75401 -5.45118 32839 ft 392 kts 255°
2026-05-07 16:43 39.73850 -5.51906 32834 ft 392 kts 255°
2026-05-07 16:44 39.72299 -5.58691 32832 ft 392 kts 255°
2026-05-07 16:44 39.70999 -5.64339 32826 ft 393 kts 255°
2026-05-07 16:45 39.69430 -5.71133 32824 ft 393 kts 255°
2026-05-07 16:45 39.67856 -5.77926 32821 ft 393 kts 255°
2026-05-07 16:46 39.66278 -5.84726 32817 ft 393 kts 255°
2026-05-07 16:46 39.64681 -5.91572 32818 ft 394 kts 255°
2026-05-07 16:47 39.63112 -5.98332 32817 ft 394 kts 255°
2026-05-07 16:47 39.61531 -6.05145 32813 ft 394 kts 254°
2026-05-07 16:48 39.59896 -6.11977 32811 ft 395 kts 254°
2026-05-07 16:48 39.58297 -6.18786 32815 ft 395 kts 254°
2026-05-07 16:49 39.56699 -6.25595 32809 ft 395 kts 254°
2026-05-07 16:49 39.55099 -6.32363 32812 ft 395 kts 254°
2026-05-07 16:50 39.53478 -6.39163 32812 ft 396 kts 254°
2026-05-07 16:50 39.51642 -6.45883 32785 ft 398 kts 246°
2026-05-07 16:51 39.49189 -6.52305 32795 ft 398 kts 245°
2026-05-07 16:51 39.46692 -6.58701 32805 ft 398 kts 245°
2026-05-07 16:52 39.44179 -6.65086 32807 ft 398 kts 245°
2026-05-07 16:52 39.41671 -6.71469 32807 ft 398 kts 245°
2026-05-07 16:53 39.39164 -6.77853 32806 ft 398 kts 245°
2026-05-07 16:53 39.36657 -6.84245 32807 ft 398 kts 245°
2026-05-07 16:54 39.34146 -6.90634 32807 ft 398 kts 245°
2026-05-07 16:54 39.31624 -6.97009 32808 ft 399 kts 244°
2026-05-07 16:55 39.29100 -7.03390 32809 ft 398 kts 244°
2026-05-07 16:55 39.26593 -7.09731 32816 ft 398 kts 244°
2026-05-07 16:56 39.24059 -7.16125 32821 ft 404 kts 244°
2026-05-07 16:56 39.22769 -7.19369 31951 ft 409 kts 244°
2026-05-07 16:56 39.20199 -7.25779 30809 ft 392 kts 243°
2026-05-07 16:57 39.18953 -7.28890 30323 ft 388 kts 243°
2026-05-07 16:57 39.17724 -7.31963 29830 ft 385 kts 243°
2026-05-07 16:57 39.16499 -7.35023 29311 ft 380 kts 243°
2026-05-07 16:57 39.15298 -7.38031 28853 ft 375 kts 243°
2026-05-07 16:58 39.14114 -7.41001 28388 ft 370 kts 243°
2026-05-07 16:58 39.12943 -7.43932 27953 ft 366 kts 243°
2026-05-07 16:58 39.11782 -7.46828 27519 ft 362 kts 243°
2026-05-07 16:58 39.10633 -7.49689 27102 ft 358 kts 243°
2026-05-07 16:59 39.09494 -7.52519 26684 ft 354 kts 243°
2026-05-07 16:59 39.08367 -7.55319 26282 ft 351 kts 242°
2026-05-07 16:59 39.07248 -7.58089 25891 ft 347 kts 242°
2026-05-07 16:59 39.06136 -7.60818 25528 ft 342 kts 242°
2026-05-07 17:00 39.05036 -7.63519 25090 ft 340 kts 242°
2026-05-07 17:00 39.03955 -7.66208 24707 ft 337 kts 243°
2026-05-07 17:00 39.02891 -7.68953 24376 ft 349 kts 243°
2026-05-07 17:00 39.01824 -7.71774 24029 ft 352 kts 244°
2026-05-07 17:01 39.00762 -7.74608 23689 ft 352 kts 244°
2026-05-07 17:01 38.99701 -7.77436 23310 ft 351 kts 244°
2026-05-07 17:01 38.98640 -7.80251 22931 ft 349 kts 243°
2026-05-07 17:01 38.97579 -7.83052 22590 ft 348 kts 243°
2026-05-07 17:02 38.96506 -7.85822 22254 ft 346 kts 240°
2026-05-07 17:02 38.95288 -7.88482 21986 ft 345 kts 238°
2026-05-07 17:02 38.94034 -7.91102 21729 ft 344 kts 238°
2026-05-07 17:02 38.92778 -7.93669 21468 ft 343 kts 237°
2026-05-07 17:03 38.91490 -7.96279 21205 ft 342 kts 237°
2026-05-07 17:03 38.90221 -7.98851 20945 ft 340 kts 237°
2026-05-07 17:03 38.88962 -8.01417 20693 ft 339 kts 237°
2026-05-07 17:03 38.87727 -8.03946 20439 ft 338 kts 237°
2026-05-07 17:04 38.86481 -8.06503 20182 ft 338 kts 237°
2026-05-07 17:04 38.85237 -8.09053 19949 ft 337 kts 237°
2026-05-07 17:04 38.83993 -8.11597 19698 ft 336 kts 237°
2026-05-07 17:04 38.82751 -8.14134 19449 ft 335 kts 237°
2026-05-07 17:05 38.81515 -8.16665 19214 ft 334 kts 237°
2026-05-07 17:05 38.80280 -8.19189 18973 ft 334 kts 237°
2026-05-07 17:05 38.79049 -8.21707 18730 ft 333 kts 237°
2026-05-07 17:05 38.77822 -8.24208 18497 ft 332 kts 237°
2026-05-07 17:06 38.76594 -8.26705 18265 ft 331 kts 237°
2026-05-07 17:06 38.75367 -8.29198 18008 ft 329 kts 237°
2026-05-07 17:06 38.74148 -8.31679 17738 ft 328 kts 237°
2026-05-07 17:06 38.72934 -8.34143 17469 ft 326 kts 237°
2026-05-07 17:07 38.71726 -8.36594 17216 ft 325 kts 237°
2026-05-07 17:07 38.70525 -8.39030 16953 ft 321 kts 237°
2026-05-07 17:07 38.69343 -8.41429 16598 ft 317 kts 237°
2026-05-07 17:07 38.68170 -8.43809 16210 ft 315 kts 237°
2026-05-07 17:08 38.67005 -8.46172 15831 ft 313 kts 237°
2026-05-07 17:08 38.65848 -8.48518 15448 ft 312 kts 237°
2026-05-07 17:08 38.64693 -8.50857 15073 ft 310 kts 237°
2026-05-07 17:08 38.63541 -8.53186 14691 ft 309 kts 237°
2026-05-07 17:09 38.62394 -8.55507 14312 ft 308 kts 237°
2026-05-07 17:09 38.61248 -8.57823 13933 ft 307 kts 237°
2026-05-07 17:09 38.60120 -8.60098 13540 ft 307 kts 237°
2026-05-07 17:09 38.58967 -8.62418 13131 ft 305 kts 237°
2026-05-07 17:10 38.57833 -8.64695 12856 ft 299 kts 237°
2026-05-07 17:10 38.56748 -8.66875 12725 ft 283 kts 237°
2026-05-07 17:10 38.55741 -8.68900 12590 ft 264 kts 237°
2026-05-07 17:10 38.54774 -8.70844 12400 ft 254 kts 237°
2026-05-07 17:11 38.53834 -8.72735 12005 ft 251 kts 237°
2026-05-07 17:11 38.52898 -8.74613 11577 ft 250 kts 237°
2026-05-07 17:11 38.51964 -8.76481 11149 ft 249 kts 237°
2026-05-07 17:11 38.51033 -8.78343 10717 ft 248 kts 237°
2026-05-07 17:12 38.50105 -8.80202 10298 ft 248 kts 237°
2026-05-07 17:12 38.49183 -8.82054 10040 ft 247 kts 237°
2026-05-07 17:12 38.48259 -8.83909 9919 ft 248 kts 237°
2026-05-07 17:12 38.47328 -8.85773 9485 ft 252 kts 237°
2026-05-07 17:13 38.46377 -8.87676 8985 ft 252 kts 237°
2026-05-07 17:13 38.45447 -8.89538 8904 ft 247 kts 237°
2026-05-07 17:13 38.44525 -8.91380 8920 ft 247 kts 237°
2026-05-07 17:13 38.43600 -8.93226 8922 ft 247 kts 237°
2026-05-07 17:14 38.42675 -8.95073 8921 ft 247 kts 237°
2026-05-07 17:14 38.41749 -8.96916 8928 ft 247 kts 237°
2026-05-07 17:14 38.40822 -8.98758 8925 ft 247 kts 237°
2026-05-07 17:14 38.39897 -9.00592 8782 ft 244 kts 237°
2026-05-07 17:15 38.38963 -9.02402 8410 ft 245 kts 236°
2026-05-07 17:15 38.38023 -9.04201 8059 ft 244 kts 236°
2026-05-07 17:15 38.37089 -9.06010 7715 ft 243 kts 244°
2026-05-07 17:15 38.36756 -9.08087 7397 ft 242 kts 272°
2026-05-07 17:16 38.36949 -9.10218 7044 ft 243 kts 278°
2026-05-07 17:16 38.37221 -9.12334 6760 ft 242 kts 279°
2026-05-07 17:16 38.37500 -9.14447 6433 ft 241 kts 279°
2026-05-07 17:16 38.37776 -9.16545 6115 ft 240 kts 279°
2026-05-07 17:17 38.38046 -9.18633 5797 ft 238 kts 279°
2026-05-07 17:17 38.38432 -9.20661 5460 ft 235 kts 294°
2026-05-07 17:17 38.39437 -9.22350 4724 ft 249 kts 323°
2026-05-07 17:17 38.41035 -9.23217 4179 ft 254 kts 351°
2026-05-07 17:18 38.42792 -9.23296 4003 ft 254 kts 358°
2026-05-07 17:18 38.44562 -9.23331 4011 ft 255 kts 357°
2026-05-07 17:18 38.46337 -9.23375 4011 ft 255 kts 356°
2026-05-07 17:18 38.48109 -9.23421 4011 ft 254 kts 357°
2026-05-07 17:19 38.49881 -9.23463 4016 ft 255 kts 357°
2026-05-07 17:19 38.51648 -9.23503 4012 ft 251 kts 357°
2026-05-07 17:19 38.53322 -9.23541 4006 ft 233 kts 357°
2026-05-07 17:19 38.54883 -9.23578 4006 ft 216 kts 357°
2026-05-07 17:20 38.56327 -9.23611 4006 ft 199 kts 356°
2026-05-07 17:20 38.57659 -9.23639 4034 ft 184 kts 356°
2026-05-07 17:20 38.58929 -9.23637 3986 ft 183 kts
2026-05-07 17:20 38.60146 -9.23155 3814 ft 184 kts 18°
2026-05-07 17:21 38.61328 -9.22548 3580 ft 182 kts 18°
2026-05-07 17:21 38.62498 -9.21931 3346 ft 182 kts 18°
2026-05-07 17:21 38.63660 -9.21314 3109 ft 180 kts 18°
2026-05-07 17:21 38.64800 -9.20708 2860 ft 178 kts 18°
2026-05-07 17:22 38.65940 -9.20101 2620 ft 177 kts 18°
2026-05-07 17:22 38.67075 -9.19496 2385 ft 177 kts 18°
2026-05-07 17:22 38.68213 -9.18890 2142 ft 176 kts 18°
2026-05-07 17:22 38.69333 -9.18292 1920 ft 168 kts 18°
2026-05-07 17:23 38.70344 -9.17749 1700 ft 149 kts 16°
2026-05-07 17:23 38.71259 -9.17260 1499 ft 137 kts 15°
2026-05-07 17:23 38.72130 -9.16798 1318 ft 135 kts 17°
2026-05-07 17:23 38.72996 -9.16337 1145 ft 135 kts 16°
2026-05-07 17:24 38.73859 -9.15873 959 ft 134 kts 17°
2026-05-07 17:24 38.74730 -9.15406 745 ft 136 kts 18°
2026-05-07 17:24 38.75619 -9.14942 585 ft 140 kts 16°
2026-05-07 17:24 38.76505 -9.14453 393 ft 138 kts 17°
2026-05-07 17:25 38.77350 -9.14015 354 ft 117 kts 22°
2026-05-07 17:25 38.77857 -9.13743 350 ft 36 kts 24°
2026-05-07 17:25 38.77964 -9.13677 352 ft 23 kts 25°
2026-05-07 17:25 38.78189 -9.13553 349 ft 35 kts 26°
2026-05-07 17:26 38.78359 -9.13365 348 ft 20 kts 52°
2026-05-07 17:26 38.78364 -9.13285 352 ft 0 kts 135°
2026-05-07 17:26 38.78296 -9.13274 357 ft 20 kts 191°
2026-05-07 17:27 38.78190 -9.13321 347 ft 14 kts 205°
2026-05-07 17:27 38.78103 -9.13368 352 ft 12 kts 201°
2026-05-07 17:27 38.78062 -9.13386 353 ft 6 kts 197°
2026-05-07 17:27 38.77947 -9.13446 353 ft 24 kts 220°
2026-05-07 17:28 38.77812 -9.13507 350 ft 19 kts 175°
2026-05-07 17:28 38.77687 -9.13476 351 ft 17 kts 167°
2026-05-07 17:28 38.77611 -9.13454 347 ft 16 kts 167°
2026-05-07 17:28 38.77503 -9.13426 347 ft 15 kts 169°
2026-05-07 17:29 38.77406 -9.13402 347 ft 13 kts 167°
2026-05-07 17:29 38.77284 -9.13368 347 ft 30 kts 167°
2026-05-07 17:29 38.77067 -9.13311 347 ft 20 kts 166°
2026-05-07 17:29 38.77023 -9.13204 347 ft 12 kts 101°
2026-05-07 17:30 38.76955 -9.13159 347 ft 11 kts 168°
2026-05-07 17:30 38.76888 -9.13138 351 ft 7 kts 158°
2026-05-07 17:30 38.76883 -9.13090 347 ft 6 kts 84°
2026-05-07 17:30 38.76892 -9.13054 354 ft 2 kts 75°
2026-05-07 17:31 38.76892 -9.13052 354 ft 0 kts 76°